STARLINK-1454, 45671

Orbit data source: Space-Track

STARLINK-1454, 45671 is a payload satellite owned by SpaceX/Seattle (US) in LEO that was launched on Thu, 04 Jun 2020 UTC via an FALCON 9 launch vehicle from the Air Force Eastern Test Range (AFETR). Payload-class satellites include a variety of spacecraft equipped with specific instruments for various scientific and technological missions. These include communications satellites like Starlink; space stations such as the ISS; scientific satellites like the Hubble; Earth observation satellites from companies like Planet Labs, Umbra, and HawkEye 360; GPS; miniature CubeSats for education and research; and military/defense satellites.

Loading next visibility...
Identifier
45671, 2020-035Q
Orbit
LEO
Country
Flag of USUS
Related business
Manufacturer
SpaceX/Seattle
Mission
Operational Commercial Communications
Bus & Motor
STARLINK, Unknown motor
Mass
260 kg wet, ~248 kg dry
Launch date (UTC)
2020-06-04 (6 years ago)
Launch vehicle
FALCON 9
Launch site
Air Force Eastern Test Range (AFETR)
Object type
Payload
Rocket body
Debris
Shape & HBR
Box + 1 Pan, 10.1 m
Radar Cross Section
13.562 m², Large (>1 m²)

Expand to show TLE details & history
Last TLE update: 14 hours ago

TLE from 14 hours ago
0 STARLINK-1454
1 45671U 20035Q   25340.70130467  .00012234  00000-0  83800-3 0  9999
2 45671  53.0542 124.0626 0001244  60.7102 299.4012 15.06434215304704
Epoch: 2025-12-06T16:49Z
TLE epoch observation values (Epoch: 2025-12-06T16:49:52.723Z)
Latitude
0.00004°
Longitude
155.86769°
Altitude
547.563 km
Speed
7.59 km/s
True Right ascension
08h 16m 15s
True Declination
0° 00' 00"
Sunlit
Object was in full shadow at epoch
Visualization orbit readout
Latitude
Unknown
Longitude
Unknown
Altitude
Unknown
Speed
Unknown
Apparent Right ascension
Unknown
Apparent Declination
Unknown
Sunlit
N/A
Visualization observer readout
Local Sidereal Time
05:07:59
Azimuth
Unknown
Elevation
Unknown
Doppler factor
Unknown
Orbital elements
Apogee altitude
548.239 km
Perigee altitude
546.516 km
Semi-major axis
6,925.514 km
Eccentricity
0.00012
Inclination
53.0542°
RAAN
124.0626°
Arg. of periapsis
60.7102°
True anomaly
299.38878°
Mean anomaly
299.4012°
Eccentric anomaly
299.39499°
Mean motion
3.76587 °/min
Orbital period
95.6 mins
BSTAR
0.000838
Loading maneuver chart data...
Computing Atmospheric mass density...

Documentation

Showing up to 5 results
|